Torna al catalogo

STARLINK-38015

AttivoComunicazioniSSO
NORAD 69726·PAYLOAD·🇺🇸 United States

Lanciato Jun 28, 2026 da Vandenberg Space Force Base

Loading…

Prossimi Passaggi (prossime 24 ore)

TLE

AggiornatoSource: CelesTrak SupGP

Epoca: Sep 14, 2026, 23:34 UTC

1 69726C 26147Y   26257.98243056  .00053828  00000+0  36173-3 0  2574
2 69726  97.2837 297.4670 0001431  83.2062  63.4438 15.75155897    15

Traccia STARLINK-38015 in tempo reale con AllMySat

Download on the App Store